Wichita Dwight D. Eisenhower National Airport Airport (ICT)

 

Airport Diagram
Current Weather/Forecast (IFR Conditions)
METAR KICT 241434Z 17020G29KT 4SM BR BKN006 BKN009 OVC013 10/09 A2981 RMK AO2 PK WND 18029/1428 RAE01 P0000 T01000094
TAF KICT 241128Z 2412/2512 17018G26KT P6SM OVC015 WS020/19045KT FM241500 17019G27KT 5SM -DZ VCSH SCT003 OVC006 TEMPO 2415/2418 4SM SHRA FM250000 17014KT 5SM -DZ VCTS SCT003 OVC006CB FM250400 31017G26KT 6SM -DZ VCSH SCT006 OVC009 FM250700 31021G29KT P6SM VCSH SCT009 OVC015

All Charts
General
Chart Name Download
AIRPORT DIAGRAM
TAKEOFF MINIMUMS
ALTERNATE MINIMUMS
HOT SPOT

Approaches
Chart Name Download
ILS OR LOC RWY 01L
ILS OR LOC RWY 01R
ILS OR LOC RWY 19L
ILS OR LOC RWY 19R
ILS RWY 01L (SA CAT I)
ILS RWY 01L (CAT II)
RNAV (RNP) Z RWY 01L
RNAV (RNP) Z RWY 14
RNAV (RNP) Z RWY 19L
RNAV (RNP) Z RWY 19R
RNAV (GPS) RWY 01R
RNAV (GPS) RWY 32
RNAV (GPS) Y RWY 01L
RNAV (GPS) Y RWY 14
RNAV (GPS) Y RWY 19L
RNAV (GPS) Y RWY 19R
VOR RWY 14
NDB RWY 01R


Inbound Traffic (Arrivals)

No inbound traffic.


Outbound Traffic (Departures)

No outbound traffic.